Year,Month,Day,Hour,Minute,Value (Times are PST for temperature in C)
2011,08,21,00,00,17.50
2011,08,21,00,01,17.40
2011,08,21,00,02,17.40
2011,08,21,00,03,17.40
2011,08,21,00,04,17.40
2011,08,21,00,05,17.40
2011,08,21,00,06,17.40
2011,08,21,00,07,17.40
2011,08,21,00,08,17.30
2011,08,21,00,09,17.30
2011,08,21,00,10,17.30
2011,08,21,00,11,17.30
2011,08,21,00,12,17.30
2011,08,21,00,13,17.30
2011,08,21,00,14,17.30
2011,08,21,00,15,17.30
2011,08,21,00,16,17.30
2011,08,21,00,17,17.30
2011,08,21,00,18,17.30
2011,08,21,00,19,17.30
2011,08,21,00,20,17.30
2011,08,21,00,21,17.30
2011,08,21,00,22,17.30
2011,08,21,00,23,17.30
2011,08,21,00,24,17.30
2011,08,21,00,25,17.30
2011,08,21,00,26,17.30
2011,08,21,00,27,17.30
2011,08,21,00,28,17.20
2011,08,21,00,29,17.20
2011,08,21,00,30,17.20
2011,08,21,00,31,17.20
2011,08,21,00,32,17.10
2011,08,21,00,33,17.10
2011,08,21,00,34,17.00
2011,08,21,00,35,17.00
2011,08,21,00,36,17.00
2011,08,21,00,37,16.90
2011,08,21,00,38,16.90
2011,08,21,00,39,16.80
2011,08,21,00,40,16.80
2011,08,21,00,41,16.80
2011,08,21,00,42,16.80
2011,08,21,00,43,16.80
2011,08,21,00,44,16.70
2011,08,21,00,45,16.70
2011,08,21,00,46,16.70
2011,08,21,00,47,16.70
2011,08,21,00,48,16.70
2011,08,21,00,49,16.70
2011,08,21,00,50,16.70
2011,08,21,00,51,16.70
2011,08,21,00,52,16.70
2011,08,21,00,53,16.60
2011,08,21,00,54,16.60
2011,08,21,00,55,16.60
2011,08,21,00,56,16.50
2011,08,21,00,57,16.50
2011,08,21,00,58,16.50
2011,08,21,00,59,16.40
2011,08,21,01,00,16.40
2011,08,21,01,01,16.40
2011,08,21,01,02,16.40
2011,08,21,01,03,16.30
2011,08,21,01,04,16.30
2011,08,21,01,05,16.30
2011,08,21,01,06,16.30
2011,08,21,01,07,16.20
2011,08,21,01,08,16.20
2011,08,21,01,09,16.20
2011,08,21,01,10,16.20
2011,08,21,01,11,16.20
2011,08,21,01,12,16.10
2011,08,21,01,13,16.10
2011,08,21,01,14,16.10
2011,08,21,01,15,16.10
2011,08,21,01,16,16.10
2011,08,21,01,17,16.00
2011,08,21,01,18,16.00
2011,08,21,01,19,16.00
2011,08,21,01,20,16.00
2011,08,21,01,21,16.00
2011,08,21,01,22,15.90
2011,08,21,01,23,15.90
2011,08,21,01,24,15.90
2011,08,21,01,25,15.90
2011,08,21,01,26,15.80
2011,08,21,01,27,15.80
2011,08,21,01,28,15.80
2011,08,21,01,29,15.80
2011,08,21,01,30,15.70
2011,08,21,01,31,15.70
2011,08,21,01,32,15.70
2011,08,21,01,33,15.60
2011,08,21,01,34,15.60
2011,08,21,01,35,15.60
2011,08,21,01,36,15.60
2011,08,21,01,37,15.60
2011,08,21,01,38,15.50
2011,08,21,01,39,15.50
2011,08,21,01,40,15.50
2011,08,21,01,41,15.40
2011,08,21,01,42,15.40
2011,08,21,01,43,15.40
2011,08,21,01,44,15.40
2011,08,21,01,45,15.40
2011,08,21,01,46,15.40
2011,08,21,01,47,15.30
2011,08,21,01,48,15.30
2011,08,21,01,49,15.30
2011,08,21,01,50,15.30
2011,08,21,01,51,15.30
2011,08,21,01,52,15.30
2011,08,21,01,53,15.30
2011,08,21,01,54,15.30
2011,08,21,01,55,15.30
2011,08,21,01,56,15.30
2011,08,21,01,57,15.20
2011,08,21,01,58,15.20
2011,08,21,01,59,15.20
2011,08,21,02,00,15.20
2011,08,21,02,01,15.20
2011,08,21,02,02,15.20
2011,08,21,02,03,15.20
2011,08,21,02,04,15.20
2011,08,21,02,05,15.20
2011,08,21,02,06,15.20
2011,08,21,02,07,15.30
2011,08,21,02,08,15.30
2011,08,21,02,09,15.30
2011,08,21,02,10,15.30
2011,08,21,02,11,15.30
2011,08,21,02,12,15.30
2011,08,21,02,13,15.40
2011,08,21,02,14,15.40
2011,08,21,02,15,15.40
2011,08,21,02,16,15.50
2011,08,21,02,17,15.50
2011,08,21,02,18,15.50
2011,08,21,02,19,15.60
2011,08,21,02,20,15.60
2011,08,21,02,21,15.60
2011,08,21,02,22,15.60
2011,08,21,02,23,15.70
2011,08,21,02,24,15.70
2011,08,21,02,25,15.70
2011,08,21,02,26,15.70
2011,08,21,02,27,15.70
2011,08,21,02,28,15.80
2011,08,21,02,29,15.80
2011,08,21,02,30,15.80
2011,08,21,02,31,15.80
2011,08,21,02,32,15.80
2011,08,21,02,33,15.90
2011,08,21,02,34,15.90
2011,08,21,02,35,15.90
2011,08,21,02,36,15.90
2011,08,21,02,37,15.90
2011,08,21,02,38,15.90
2011,08,21,02,39,15.90
2011,08,21,02,40,15.90
2011,08,21,02,41,15.90
2011,08,21,02,42,15.90
2011,08,21,02,43,15.90
2011,08,21,02,44,15.90
2011,08,21,02,45,15.90
2011,08,21,02,46,15.90
2011,08,21,02,47,15.90
2011,08,21,02,48,15.90
2011,08,21,02,49,15.90
2011,08,21,02,50,15.80
2011,08,21,02,51,15.80
2011,08,21,02,52,15.80
2011,08,21,02,53,15.80
2011,08,21,02,54,15.70
2011,08,21,02,55,15.70
2011,08,21,02,56,15.60
2011,08,21,02,57,15.60
2011,08,21,02,58,15.50
2011,08,21,02,59,15.50
2011,08,21,03,00,15.40
2011,08,21,03,01,15.40
2011,08,21,03,02,15.40
2011,08,21,03,03,15.30
2011,08,21,03,04,15.20
2011,08,21,03,05,15.10
2011,08,21,03,06,15.00
2011,08,21,03,07,14.80
2011,08,21,03,08,14.70
2011,08,21,03,09,14.60
2011,08,21,03,10,14.50
2011,08,21,03,11,14.40
2011,08,21,03,12,14.30
2011,08,21,03,13,14.30
2011,08,21,03,14,14.20
2011,08,21,03,15,14.10
2011,08,21,03,16,14.10
2011,08,21,03,17,14.10
2011,08,21,03,18,14.00
2011,08,21,03,19,14.00
2011,08,21,03,20,13.90
2011,08,21,03,21,13.90
2011,08,21,03,22,13.90
2011,08,21,03,23,13.90
2011,08,21,03,24,13.80
2011,08,21,03,25,13.80
2011,08,21,03,26,13.80
2011,08,21,03,27,13.70
2011,08,21,03,28,13.70
2011,08,21,03,29,13.70
2011,08,21,03,30,13.70
2011,08,21,03,31,13.70
2011,08,21,03,32,13.60
2011,08,21,03,33,13.60
2011,08,21,03,34,13.60
2011,08,21,03,35,13.60
2011,08,21,03,36,13.60
2011,08,21,03,37,13.60
2011,08,21,03,38,13.60
2011,08,21,03,39,13.60
2011,08,21,03,40,13.70
2011,08,21,03,41,13.70
2011,08,21,03,42,13.70
2011,08,21,03,43,13.70
2011,08,21,03,44,13.70
2011,08,21,03,45,13.70
2011,08,21,03,46,13.70
2011,08,21,03,47,13.70
2011,08,21,03,48,13.70
2011,08,21,03,49,13.80
2011,08,21,03,50,13.80
2011,08,21,03,51,13.80
2011,08,21,03,52,13.80
2011,08,21,03,53,13.80
2011,08,21,03,54,13.80
2011,08,21,03,55,13.80
2011,08,21,03,56,13.80
2011,08,21,03,57,13.80
2011,08,21,03,58,13.80
2011,08,21,03,59,13.80
2011,08,21,04,00,13.80
2011,08,21,04,01,13.90
2011,08,21,04,02,13.90
2011,08,21,04,03,13.90
2011,08,21,04,04,13.90
2011,08,21,04,05,13.90
2011,08,21,04,06,13.90
2011,08,21,04,07,13.90
2011,08,21,04,08,13.90
2011,08,21,04,09,13.90
2011,08,21,04,10,13.80
2011,08,21,04,11,13.80
2011,08,21,04,12,13.80
2011,08,21,04,13,13.80
2011,08,21,04,14,13.80
2011,08,21,04,15,13.80
2011,08,21,04,16,13.90
2011,08,21,04,17,13.90
2011,08,21,04,18,13.90
2011,08,21,04,19,13.90
2011,08,21,04,20,13.90
2011,08,21,04,21,13.90
2011,08,21,04,22,13.90
2011,08,21,04,23,13.90
2011,08,21,04,24,13.90
2011,08,21,04,25,13.90
2011,08,21,04,26,13.90
2011,08,21,04,27,13.90
2011,08,21,04,28,14.00
2011,08,21,04,29,14.00
2011,08,21,04,30,14.00
2011,08,21,04,31,14.00
2011,08,21,04,32,14.00
2011,08,21,04,33,14.00
2011,08,21,04,34,14.10
2011,08,21,04,35,14.10
2011,08,21,04,36,14.20
2011,08,21,04,37,14.20
2011,08,21,04,38,14.30
2011,08,21,04,39,14.40
2011,08,21,04,40,14.50
2011,08,21,04,41,14.60
2011,08,21,04,42,14.60
2011,08,21,04,43,14.70
2011,08,21,04,44,14.80
2011,08,21,04,45,14.80
2011,08,21,04,46,14.90
2011,08,21,04,47,14.90
2011,08,21,04,48,15.00
2011,08,21,04,49,15.10
2011,08,21,04,50,15.10
2011,08,21,04,51,15.10
2011,08,21,04,52,15.20
2011,08,21,04,53,15.20
2011,08,21,04,54,15.20
2011,08,21,04,55,15.20
2011,08,21,04,56,15.30
2011,08,21,04,57,15.30
2011,08,21,04,58,15.30
2011,08,21,04,59,15.30
2011,08,21,05,00,15.30
2011,08,21,05,01,15.30
2011,08,21,05,02,15.30
2011,08,21,05,03,15.30
2011,08,21,05,04,15.30
2011,08,21,05,05,15.30
2011,08,21,05,06,15.30
2011,08,21,05,07,15.30
2011,08,21,05,08,15.30
2011,08,21,05,09,15.30
2011,08,21,05,10,15.30
2011,08,21,05,11,15.30
2011,08,21,05,12,15.30
2011,08,21,05,13,15.30
2011,08,21,05,14,15.30
2011,08,21,05,15,15.30
2011,08,21,05,16,15.30
2011,08,21,05,17,15.30
2011,08,21,05,18,15.30
2011,08,21,05,19,15.30
2011,08,21,05,20,15.30
2011,08,21,05,21,15.30
2011,08,21,05,22,15.30
2011,08,21,05,23,15.30
2011,08,21,05,24,15.30
2011,08,21,05,25,15.30
2011,08,21,05,26,15.40
2011,08,21,05,27,15.40
2011,08,21,05,28,15.40
2011,08,21,05,29,15.40
2011,08,21,05,30,15.40
2011,08,21,05,31,15.40
2011,08,21,05,32,15.40
2011,08,21,05,33,15.40
2011,08,21,05,34,15.40
2011,08,21,05,35,15.50
2011,08,21,05,36,15.50
2011,08,21,05,37,15.50
2011,08,21,05,38,15.50
2011,08,21,05,39,15.50
2011,08,21,05,40,15.60
2011,08,21,05,41,15.60
2011,08,21,05,42,15.60
2011,08,21,05,43,15.60
2011,08,21,05,44,15.60
2011,08,21,05,45,15.60
2011,08,21,05,46,15.60
2011,08,21,05,47,15.60
2011,08,21,05,48,15.70
2011,08,21,05,49,15.70
2011,08,21,05,50,15.70
2011,08,21,05,51,15.70
2011,08,21,05,52,15.70
2011,08,21,05,53,15.70
2011,08,21,05,54,15.70
2011,08,21,05,55,15.70
2011,08,21,05,56,15.70
2011,08,21,05,57,15.70
2011,08,21,05,58,15.70
2011,08,21,05,59,15.70
2011,08,21,06,00,15.70
2011,08,21,06,01,15.80
2011,08,21,06,02,15.80
2011,08,21,06,03,15.80
2011,08,21,06,04,15.80
2011,08,21,06,05,15.80
2011,08,21,06,06,15.80
2011,08,21,06,07,15.80
2011,08,21,06,08,15.80
2011,08,21,06,09,15.80
2011,08,21,06,10,15.70
2011,08,21,06,11,15.70
2011,08,21,06,12,15.60
2011,08,21,06,13,15.60
2011,08,21,06,14,15.60
2011,08,21,06,15,15.60
2011,08,21,06,16,15.50
2011,08,21,06,17,15.40
2011,08,21,06,18,15.40
2011,08,21,06,19,15.40
2011,08,21,06,20,15.30
2011,08,21,06,21,15.30
2011,08,21,06,22,15.30
2011,08,21,06,23,15.20
2011,08,21,06,24,15.20
2011,08,21,06,25,15.20
2011,08,21,06,26,15.20
2011,08,21,06,27,15.20
2011,08,21,06,28,15.20
2011,08,21,06,29,15.10
2011,08,21,06,30,15.10
2011,08,21,06,31,15.10
2011,08,21,06,32,15.10
2011,08,21,06,33,15.10
2011,08,21,06,34,15.10
2011,08,21,06,35,15.10
2011,08,21,06,36,15.10
2011,08,21,06,37,15.10
2011,08,21,06,38,15.10
2011,08,21,06,39,15.10
2011,08,21,06,40,15.10
2011,08,21,06,41,15.10
2011,08,21,06,42,15.10
2011,08,21,06,43,15.20
2011,08,21,06,44,15.20
2011,08,21,06,45,15.20
2011,08,21,06,46,15.20
2011,08,21,06,47,15.20
2011,08,21,06,48,15.20
2011,08,21,06,49,15.30
2011,08,21,06,50,15.30
2011,08,21,06,51,15.30
2011,08,21,06,52,15.40
2011,08,21,06,53,15.40
2011,08,21,06,54,15.50
2011,08,21,06,55,15.60
2011,08,21,06,56,15.60
2011,08,21,06,57,15.70
2011,08,21,06,58,15.80
2011,08,21,06,59,15.90
2011,08,21,07,00,16.00
2011,08,21,07,01,16.10
2011,08,21,07,02,16.20
2011,08,21,07,03,16.30
2011,08,21,07,04,16.40
2011,08,21,07,05,16.40
2011,08,21,07,06,16.50
2011,08,21,07,07,16.50
2011,08,21,07,08,16.60
2011,08,21,07,09,16.60
2011,08,21,07,10,16.60
2011,08,21,07,11,16.60
2011,08,21,07,12,16.60
2011,08,21,07,13,16.60
2011,08,21,07,14,16.60
2011,08,21,07,15,16.60
2011,08,21,07,16,16.50
2011,08,21,07,17,16.50
2011,08,21,07,18,16.50
2011,08,21,07,19,16.50
2011,08,21,07,20,16.40
2011,08,21,07,21,16.40
2011,08,21,07,22,16.40
2011,08,21,07,23,16.40
2011,08,21,07,24,16.40
2011,08,21,07,25,16.40
2011,08,21,07,26,16.40
2011,08,21,07,27,16.40
2011,08,21,07,28,16.40
2011,08,21,07,29,16.30
2011,08,21,07,30,16.30
2011,08,21,07,31,16.30
2011,08,21,07,32,16.30
2011,08,21,07,33,16.30
2011,08,21,07,34,16.30
2011,08,21,07,35,16.30
2011,08,21,07,36,16.30
2011,08,21,07,37,16.30
2011,08,21,07,38,16.30
2011,08,21,07,39,16.30
2011,08,21,07,40,16.40
2011,08,21,07,41,16.40
2011,08,21,07,42,16.40
2011,08,21,07,43,16.40
2011,08,21,07,44,16.40
2011,08,21,07,45,16.40
2011,08,21,07,46,16.50
2011,08,21,07,47,16.50
2011,08,21,07,48,16.50
2011,08,21,07,49,16.60
2011,08,21,07,50,16.60
2011,08,21,07,51,16.60
2011,08,21,07,52,16.60
2011,08,21,07,53,16.60
2011,08,21,07,54,16.70
2011,08,21,07,55,16.70
2011,08,21,07,56,16.70
2011,08,21,07,57,16.70
2011,08,21,07,58,16.70
2011,08,21,07,59,16.70
2011,08,21,08,00,16.80
2011,08,21,08,01,16.80
2011,08,21,08,02,16.80
2011,08,21,08,03,16.80
2011,08,21,08,04,16.80
2011,08,21,08,05,16.80
2011,08,21,08,06,16.80
2011,08,21,08,07,16.80
2011,08,21,08,08,16.80
2011,08,21,08,09,16.80
2011,08,21,08,10,16.80
2011,08,21,08,11,16.80
2011,08,21,08,12,16.80
2011,08,21,08,13,16.80
2011,08,21,08,14,16.80
2011,08,21,08,15,16.80
2011,08,21,08,16,16.80
2011,08,21,08,17,16.80
2011,08,21,08,18,16.80
2011,08,21,08,19,16.80
2011,08,21,08,20,16.70
2011,08,21,08,21,16.70
2011,08,21,08,22,16.70
2011,08,21,08,23,16.70
2011,08,21,08,24,16.70
2011,08,21,08,25,16.60
2011,08,21,08,26,16.60
2011,08,21,08,27,16.60
2011,08,21,08,28,16.60
2011,08,21,08,29,16.60
2011,08,21,08,30,16.60
2011,08,21,08,31,16.60
2011,08,21,08,32,16.60
2011,08,21,08,33,16.60
2011,08,21,08,34,16.60
2011,08,21,08,35,16.60
2011,08,21,08,36,16.70
2011,08,21,08,37,16.70
2011,08,21,08,38,16.70
2011,08,21,08,39,16.70
2011,08,21,08,40,16.70
2011,08,21,08,41,16.80
2011,08,21,08,42,16.80
2011,08,21,08,43,16.80
2011,08,21,08,44,16.70
2011,08,21,08,45,16.60
2011,08,21,08,46,16.60
2011,08,21,08,47,16.50
2011,08,21,08,48,16.40
2011,08,21,08,49,16.40
2011,08,21,08,50,16.40
2011,08,21,08,51,16.40
2011,08,21,08,52,16.50
2011,08,21,08,53,16.50
2011,08,21,08,54,16.60
2011,08,21,08,55,16.60
2011,08,21,08,56,16.70
2011,08,21,08,57,16.80
2011,08,21,08,58,16.90
2011,08,21,08,59,17.00
2011,08,21,09,00,17.10
2011,08,21,09,01,17.20
2011,08,21,09,02,17.30
2011,08,21,09,03,17.40
2011,08,21,09,04,17.50
2011,08,21,09,05,17.60
2011,08,21,09,06,17.80
2011,08,21,09,07,17.80
2011,08,21,09,08,17.90
2011,08,21,09,09,18.00
2011,08,21,09,10,18.00
2011,08,21,09,11,18.10
2011,08,21,09,12,18.10
2011,08,21,09,13,18.10
2011,08,21,09,14,18.00
2011,08,21,09,15,18.00
2011,08,21,09,16,17.90
2011,08,21,09,17,17.90
2011,08,21,09,18,17.90
2011,08,21,09,19,17.80
2011,08,21,09,20,17.80
2011,08,21,09,21,17.80
2011,08,21,09,22,17.70
2011,08,21,09,23,17.70
2011,08,21,09,24,17.60
2011,08,21,09,25,17.50
2011,08,21,09,26,17.50
2011,08,21,09,27,17.50
2011,08,21,09,28,17.40
2011,08,21,09,29,17.40
2011,08,21,09,30,17.40
2011,08,21,09,31,17.40
2011,08,21,09,32,17.40
2011,08,21,09,33,17.30
2011,08,21,09,34,17.30
2011,08,21,09,35,17.30
2011,08,21,09,36,17.30
2011,08,21,09,37,17.20
2011,08,21,09,38,17.30
2011,08,21,09,39,17.30
2011,08,21,09,40,17.30
2011,08,21,09,41,17.30
2011,08,21,09,42,17.40
2011,08,21,09,43,17.40
2011,08,21,09,44,17.40
2011,08,21,09,45,17.40
2011,08,21,09,46,17.30
2011,08,21,09,47,17.20
2011,08,21,09,48,17.10
2011,08,21,09,49,17.00
2011,08,21,09,50,16.90
2011,08,21,09,51,16.80
2011,08,21,09,52,16.70
2011,08,21,09,53,16.70
2011,08,21,09,54,16.80
2011,08,21,09,55,16.80
2011,08,21,09,56,16.90
2011,08,21,09,57,16.90
2011,08,21,09,58,17.00
2011,08,21,09,59,17.00
2011,08,21,10,00,16.90
2011,08,21,10,01,16.90
2011,08,21,10,02,16.80
2011,08,21,10,03,16.80
2011,08,21,10,04,16.80
2011,08,21,10,05,16.80
2011,08,21,10,06,16.80
2011,08,21,10,07,16.90
2011,08,21,10,08,16.90
2011,08,21,10,09,16.90
2011,08,21,10,10,16.90
2011,08,21,10,11,16.90
2011,08,21,10,12,16.90
2011,08,21,10,13,16.80
2011,08,21,10,14,16.90
2011,08,21,10,15,16.90
2011,08,21,10,16,16.90
2011,08,21,10,17,17.00
2011,08,21,10,18,17.00
2011,08,21,10,19,17.10
2011,08,21,10,20,17.10
2011,08,21,10,21,17.10
2011,08,21,10,22,17.10
2011,08,21,10,23,17.10
2011,08,21,10,24,17.20
2011,08,21,10,25,17.20
2011,08,21,10,26,17.30
2011,08,21,10,27,17.30
2011,08,21,10,28,17.50
2011,08,21,10,29,17.60
2011,08,21,10,30,17.70
2011,08,21,10,31,17.90
2011,08,21,10,32,18.00
2011,08,21,10,33,18.20
2011,08,21,10,34,18.30
2011,08,21,10,35,18.30
2011,08,21,10,36,18.40
2011,08,21,10,37,18.40
2011,08,21,10,38,18.50
2011,08,21,10,39,18.60
2011,08,21,10,40,18.70
2011,08,21,10,41,18.80
2011,08,21,10,42,18.80
2011,08,21,10,43,18.90
2011,08,21,10,44,19.00
2011,08,21,10,45,19.10
2011,08,21,10,46,19.20
2011,08,21,10,47,19.20
2011,08,21,10,48,19.30
2011,08,21,10,49,19.30
2011,08,21,10,50,19.30
2011,08,21,10,51,19.30
2011,08,21,10,52,19.40
2011,08,21,10,53,19.40
2011,08,21,10,54,19.50
2011,08,21,10,55,19.50
2011,08,21,10,56,19.60
2011,08,21,10,57,19.70
2011,08,21,10,58,19.80
2011,08,21,10,59,19.90
2011,08,21,11,00,20.00
2011,08,21,11,01,20.10
2011,08,21,11,02,20.20
2011,08,21,11,03,20.30
2011,08,21,11,04,20.20
2011,08,21,11,05,20.20
2011,08,21,11,06,20.10
2011,08,21,11,07,20.20
2011,08,21,11,08,20.30
2011,08,21,11,09,20.30
2011,08,21,11,10,20.40
2011,08,21,11,11,20.50
2011,08,21,11,12,20.60
2011,08,21,11,13,20.70
2011,08,21,11,14,20.70
2011,08,21,11,15,20.70
2011,08,21,11,16,20.80
2011,08,21,11,17,20.80
2011,08,21,11,18,20.90
2011,08,21,11,19,21.00
2011,08,21,11,20,21.20
2011,08,21,11,21,21.30
2011,08,21,11,22,21.30
2011,08,21,11,23,21.40
2011,08,21,11,24,21.50
2011,08,21,11,25,21.60
2011,08,21,11,26,21.60
2011,08,21,11,27,21.70
2011,08,21,11,28,21.70
2011,08,21,11,29,21.80
2011,08,21,11,30,21.80
2011,08,21,11,31,21.90
2011,08,21,11,32,22.00
2011,08,21,11,33,22.10
2011,08,21,11,34,22.10
2011,08,21,11,35,22.00
2011,08,21,11,36,21.90
2011,08,21,11,37,21.90
2011,08,21,11,38,21.80
2011,08,21,11,39,21.70
2011,08,21,11,40,21.60
2011,08,21,11,41,21.60
2011,08,21,11,42,21.50
2011,08,21,11,43,21.40
2011,08,21,11,44,21.40
2011,08,21,11,45,21.40
2011,08,21,11,46,21.40
2011,08,21,11,47,21.50
2011,08,21,11,48,21.50
2011,08,21,11,49,21.60
2011,08,21,11,50,21.60
2011,08,21,11,51,21.70
2011,08,21,11,52,21.70
2011,08,21,11,53,21.70
2011,08,21,11,54,21.80
2011,08,21,11,55,21.80
2011,08,21,11,56,21.80
2011,08,21,11,57,21.80
2011,08,21,11,58,21.80
2011,08,21,11,59,21.80
2011,08,21,12,00,21.90
2011,08,21,12,01,22.00
2011,08,21,12,02,22.10
2011,08,21,12,03,22.20
2011,08,21,12,04,22.30
2011,08,21,12,05,22.30
2011,08,21,12,06,22.40
2011,08,21,12,07,22.40
2011,08,21,12,08,22.50
2011,08,21,12,09,22.50
2011,08,21,12,10,22.60
2011,08,21,12,11,22.60
2011,08,21,12,12,22.70
2011,08,21,12,13,22.70
2011,08,21,12,14,22.80
2011,08,21,12,15,22.80
2011,08,21,12,16,22.80
2011,08,21,12,17,22.90
2011,08,21,12,18,23.00
2011,08,21,12,19,23.00
2011,08,21,12,20,23.10
2011,08,21,12,21,23.20
2011,08,21,12,22,23.20
2011,08,21,12,23,23.20
2011,08,21,12,24,23.30
2011,08,21,12,25,23.40
2011,08,21,12,26,23.40
2011,08,21,12,27,23.50
2011,08,21,12,28,23.60
2011,08,21,12,29,23.70
2011,08,21,12,30,23.70
2011,08,21,12,31,23.70
2011,08,21,12,32,23.70
2011,08,21,12,33,23.70
2011,08,21,12,34,23.70
2011,08,21,12,35,23.60
2011,08,21,12,36,23.60
2011,08,21,12,37,23.60
2011,08,21,12,38,23.50
2011,08,21,12,39,23.50
2011,08,21,12,40,23.40
2011,08,21,12,41,23.40
2011,08,21,12,42,23.30
2011,08,21,12,43,23.30
2011,08,21,12,44,23.30
2011,08,21,12,45,23.30
2011,08,21,12,46,23.30
2011,08,21,12,47,23.40
2011,08,21,12,48,23.60
2011,08,21,12,49,23.60
2011,08,21,12,50,23.70
2011,08,21,12,51,23.70
2011,08,21,12,52,23.70
2011,08,21,12,53,23.70
2011,08,21,12,54,23.70
2011,08,21,12,55,23.70
2011,08,21,12,56,23.70
2011,08,21,12,57,23.80
2011,08,21,12,58,23.80
2011,08,21,12,59,23.80
2011,08,21,13,00,23.80
2011,08,21,13,01,23.80
2011,08,21,13,02,23.80
2011,08,21,13,03,23.70
2011,08,21,13,04,23.70
2011,08,21,13,05,23.70
2011,08,21,13,06,23.60
2011,08,21,13,07,23.60
2011,08,21,13,08,23.60
2011,08,21,13,09,23.60
2011,08,21,13,10,23.70
2011,08,21,13,11,23.70
2011,08,21,13,12,23.70
2011,08,21,13,13,23.80
2011,08,21,13,14,23.80
2011,08,21,13,15,23.90
2011,08,21,13,16,23.90
2011,08,21,13,17,23.90
2011,08,21,13,18,24.00
2011,08,21,13,19,24.10
2011,08,21,13,20,24.10
2011,08,21,13,21,24.20
2011,08,21,13,22,24.30
2011,08,21,13,23,24.30
2011,08,21,13,24,24.30
2011,08,21,13,25,24.30
2011,08,21,13,26,24.40
2011,08,21,13,27,24.40
2011,08,21,13,28,24.30
2011,08,21,13,29,24.30
2011,08,21,13,30,24.30
2011,08,21,13,31,24.30
2011,08,21,13,32,24.40
2011,08,21,13,33,24.40
2011,08,21,13,34,24.30
2011,08,21,13,35,24.30
2011,08,21,13,36,24.30
2011,08,21,13,37,24.30
2011,08,21,13,38,24.20
2011,08,21,13,39,24.20
2011,08,21,13,40,24.20
2011,08,21,13,41,24.20
2011,08,21,13,42,24.30
2011,08,21,13,43,24.30
2011,08,21,13,44,24.40
2011,08,21,13,45,24.60
2011,08,21,13,46,24.70
2011,08,21,13,47,24.70
2011,08,21,13,48,24.70
2011,08,21,13,49,24.60
2011,08,21,13,50,24.60
2011,08,21,13,51,24.60
2011,08,21,13,52,24.60
2011,08,21,13,53,24.60
2011,08,21,13,54,24.70
2011,08,21,13,55,24.70
2011,08,21,13,56,24.80
2011,08,21,13,57,24.80
2011,08,21,13,58,24.80
2011,08,21,13,59,24.80
2011,08,21,14,00,24.90
2011,08,21,14,01,25.00
2011,08,21,14,02,25.20
2011,08,21,14,03,25.30
2011,08,21,14,04,25.40
2011,08,21,14,05,25.40
2011,08,21,14,06,25.40
2011,08,21,14,07,25.40
2011,08,21,14,08,25.30
2011,08,21,14,09,25.30
2011,08,21,14,10,25.10
2011,08,21,14,11,25.00
2011,08,21,14,12,24.90
2011,08,21,14,13,24.80
2011,08,21,14,14,24.70
2011,08,21,14,15,24.70
2011,08,21,14,16,24.70
2011,08,21,14,17,24.70
2011,08,21,14,18,24.70
2011,08,21,14,19,24.70
2011,08,21,14,20,24.70
2011,08,21,14,21,24.70
2011,08,21,14,22,24.50
2011,08,21,14,23,24.40
2011,08,21,14,24,24.30
2011,08,21,14,25,24.20
2011,08,21,14,26,24.20
2011,08,21,14,27,24.10
2011,08,21,14,28,24.10
2011,08,21,14,29,24.00
2011,08,21,14,30,24.00
2011,08,21,14,31,23.90
2011,08,21,14,32,23.90
2011,08,21,14,33,23.90
2011,08,21,14,34,23.90
2011,08,21,14,35,23.80
2011,08,21,14,36,23.80
2011,08,21,14,37,23.70
2011,08,21,14,38,23.70
2011,08,21,14,39,23.70
2011,08,21,14,40,23.80
2011,08,21,14,41,23.80
2011,08,21,14,42,23.80
2011,08,21,14,43,23.80
2011,08,21,14,44,23.80
2011,08,21,14,45,23.70
2011,08,21,14,46,23.70
2011,08,21,14,47,23.70
2011,08,21,14,48,23.60
2011,08,21,14,49,23.60
2011,08,21,14,50,23.60
2011,08,21,14,51,23.60
2011,08,21,14,52,23.50
2011,08,21,14,53,23.40
2011,08,21,14,54,23.40
2011,08,21,14,55,23.30
2011,08,21,14,56,23.10
2011,08,21,14,57,23.00
2011,08,21,14,58,22.90
2011,08,21,14,59,22.90
2011,08,21,15,00,22.90
2011,08,21,15,01,22.80
2011,08,21,15,02,22.80
2011,08,21,15,03,22.80
2011,08,21,15,04,22.80
2011,08,21,15,05,22.70
2011,08,21,15,06,22.70
2011,08,21,15,07,22.70
2011,08,21,15,08,22.70
2011,08,21,15,09,22.60
2011,08,21,15,10,22.60
2011,08,21,15,11,22.50
2011,08,21,15,12,22.40
2011,08,21,15,13,22.40
2011,08,21,15,14,22.30
2011,08,21,15,15,22.40
2011,08,21,15,16,22.40
2011,08,21,15,17,22.40
2011,08,21,15,18,22.50
2011,08,21,15,19,22.60
2011,08,21,15,20,22.70
2011,08,21,15,21,22.80
2011,08,21,15,22,22.80
2011,08,21,15,23,22.90
2011,08,21,15,24,22.90
2011,08,21,15,25,23.00
2011,08,21,15,26,23.00
2011,08,21,15,27,23.10
2011,08,21,15,28,23.10
2011,08,21,15,29,23.20
2011,08,21,15,30,23.20
2011,08,21,15,31,23.30
2011,08,21,15,32,23.30
2011,08,21,15,33,23.30
2011,08,21,15,34,23.30
2011,08,21,15,35,23.40
2011,08,21,15,36,23.40
2011,08,21,15,37,23.50
2011,08,21,15,38,23.50
2011,08,21,15,39,23.50
2011,08,21,15,40,23.50
2011,08,21,15,41,23.30
2011,08,21,15,42,23.30
2011,08,21,15,43,23.20
2011,08,21,15,44,23.10
2011,08,21,15,45,23.10
2011,08,21,15,46,23.00
2011,08,21,15,47,23.00
2011,08,21,15,48,23.00
2011,08,21,15,49,23.00
2011,08,21,15,50,23.10
2011,08,21,15,51,23.10
2011,08,21,15,52,23.20
2011,08,21,15,53,23.30
2011,08,21,15,54,23.30
2011,08,21,15,55,23.30
2011,08,21,15,56,23.30
2011,08,21,15,57,23.40
2011,08,21,15,58,23.40
2011,08,21,15,59,23.40
2011,08,21,16,00,23.30
2011,08,21,16,01,23.30
2011,08,21,16,02,23.30
2011,08,21,16,03,23.30
2011,08,21,16,04,23.30
2011,08,21,16,05,23.40
2011,08,21,16,06,23.40
2011,08,21,16,07,23.40
2011,08,21,16,08,23.40
2011,08,21,16,09,23.50
2011,08,21,16,10,23.50
2011,08,21,16,11,23.50
2011,08,21,16,12,23.50
2011,08,21,16,13,23.50
2011,08,21,16,14,23.50
2011,08,21,16,15,23.50
2011,08,21,16,16,23.40
2011,08,21,16,17,23.40
2011,08,21,16,18,23.30
2011,08,21,16,19,23.30
2011,08,21,16,20,23.30
2011,08,21,16,21,23.20
2011,08,21,16,22,23.20
2011,08,21,16,23,23.20
2011,08,21,16,24,23.20
2011,08,21,16,25,23.20
2011,08,21,16,26,23.10
2011,08,21,16,27,23.10
2011,08,21,16,28,23.10
2011,08,21,16,29,23.10
2011,08,21,16,30,23.10
2011,08,21,16,31,23.10
2011,08,21,16,32,23.10
2011,08,21,16,33,23.10
2011,08,21,16,34,23.10
2011,08,21,16,35,23.10
2011,08,21,16,36,23.10
2011,08,21,16,37,23.20
2011,08,21,16,38,23.20
2011,08,21,16,39,23.30
2011,08,21,16,40,23.30
2011,08,21,16,41,23.40
2011,08,21,16,42,23.50
2011,08,21,16,43,23.50
2011,08,21,16,44,23.60
2011,08,21,16,45,23.60
2011,08,21,16,46,23.60
2011,08,21,16,47,23.70
2011,08,21,16,48,23.70
2011,08,21,16,49,23.70
2011,08,21,16,50,23.70
2011,08,21,16,51,23.70
2011,08,21,16,52,23.60
2011,08,21,16,53,23.50
2011,08,21,16,54,23.50
2011,08,21,16,55,23.40
2011,08,21,16,56,23.40
2011,08,21,16,57,23.40
2011,08,21,16,58,23.40
2011,08,21,16,59,23.50
2011,08,21,17,00,23.60
2011,08,21,17,01,23.60
2011,08,21,17,02,23.60
2011,08,21,17,03,23.70
2011,08,21,17,04,23.70
2011,08,21,17,05,23.80
2011,08,21,17,06,23.80
2011,08,21,17,07,23.80
2011,08,21,17,08,23.90
2011,08,21,17,09,24.00
2011,08,21,17,10,24.00
2011,08,21,17,11,24.10
2011,08,21,17,12,24.10
2011,08,21,17,13,24.20
2011,08,21,17,14,24.20
2011,08,21,17,15,24.30
2011,08,21,17,16,24.30
2011,08,21,17,17,24.40
2011,08,21,17,18,24.40
2011,08,21,17,19,24.40